Regional Weather Roundup
Issued by NWS

Home | Current Version | Previous Version | Graphics & Text | Print | Product List | Glossary On
Versions: 1 2 3 4 5 6 7 8 9 10 11 12 13 14 15 16 17 18 19 20 21 22 23 24 25 26 27 28 29 30 31 32 33 34 35 36 37 38 39 40 41 42 43 44 45 46 47 48 49 50
542
ASUS45 KTFX 091610
RWRMT
MONTANA REGIONAL WEATHER ROUNDUP
NATIONAL WEATHER SERVICE GREAT FALLS MT
900 AM MST FRI DEC 09 2016

NOTE: "FAIR" INDICATES FEW OR NO CLOUDS BELOW 12000 FEET WITH NO
SIGNIFICANT WEATHER AND/OR OBSTRUCTIONS TO VISIBILITY.

MTZ001>007-043-091700-
WEST OF THE DIVIDE

CITY           SKY/WX    TMP DP  RH WIND       PRES   REMARKS
KALISPELL      CLOUDY     4  -4  69 N12       30.24S WCI -12
MISSOULA       CLOUDY    13   5  70 SE5       30.20R
BUTTE          CLOUDY     1  -4  79 CALM      30.02F
MULLAN PASS    FOG        6   3  87 S7        29.92R VSB 1/2 WCI  -6
ANACONDA         N/A      3  -2  78 NE6       30.06R WCI  -8
DEER LODGE       N/A      3  -2  78 NW3       30.10S
EUREKA           N/A      0  -6  78 CALM      30.31F
HAMILTON         N/A     10   7  85 CALM      30.16R
LIBBY            N/A      9   5  85 CALM      30.25F
PLAINS           N/A     14   4  64 CALM      30.23S
RONAN            N/A     11   5  76 N7        30.20R WCI   0
$$

MTZ008-052>055-091700-
SOUTHWEST MONTANA

CITY           SKY/WX    TMP DP  RH WIND       PRES   REMARKS
BOZEMAN        CLOUDY     2  -3  80 W6        30.17S WCI  -9
DILLON         CLOUDY     4  -1  80 CALM      30.08R
W YELLOWSTONE  CLOUDY    10   7  85 CALM      30.06S
ENNIS          CLOUDY     3   0  85 CALM      30.12S
THREE FORKS      N/A      1 -43  11 W1        30.15S
TWIN BRIDGES     N/A      5  -5  63 MISG      30.07R
$$

MTZ009-010-012-014-046-048-049-054-091700-
EAST SLOPES AND CENTRAL MONTANA

CITY           SKY/WX    TMP DP  RH WIND       PRES   REMARKS
CUT BANK       CLOUDY    -5  -8  87 E6        30.26S WCI -18
GREAT FALLS    LGT SNOW  -2  -7  79 NE5       30.28S
MALMSTROM AFB  LGT SNOW  -2  -5  87 NE5       30.31S
HELENA         CLOUDY     1  -6  72 NW5       30.23S
AUGUSTA        FLURRIES  -5  -9  83 E3        30.18F
BOWMANS CRNR   LGT SNOW  -6  -9  86 NE7       30.18S WCI -20
CHOTEAU          N/A     -2  -8  78 MISG      30.27R
CONRAD           N/A     -2  -6  82 N3        30.26S
FAIRFIELD      FLURRIES  -4  -9  77 E5        30.25R
POWER          LGT SNOW  -4  -9  79 E5        30.26S
RAYNESFORD     LGT SNOW  -4  -8  81 W2        30.24S
ULM            FLURRIES  -2  -7  80 E2        30.28F
$$

MTZ011-013-016-021-045-047-050-051-091700-
NORTH CENTRAL MONTANA

CITY           SKY/WX    TMP DP  RH WIND       PRES   REMARKS
HAVRE          CLOUDY     0  -5  79 E12       30.42S WCI -17
LEWISTOWN      LGT SNOW  -1  -6  79 E6        30.22S WCI -13
N BAR RANCH    LGT SNOW  -2  -9  71 E7        30.23R WCI -16
CHINOOK          N/A      0  -6  78 E8        30.46S WCI -15
DENTON         LGT SNOW  -1  -5  84 MISG      30.26S
GEYSER         LGT SNOW  -3  -7  83 E3        30.23R VSB 1
GRASS RANGE    LGT SNOW  -2  -5  85 NE7       30.25R WCI -15
JUDITH GAP     LGT SNOW   0  -5  82 MISG      30.16S
ROY            LGT SNOW  -3  -6  84 MISG      30.29S
STANFORD       LGT SNOW  -4  -7  87 E5        30.19S
WINIFRED       LGT SNOW  -2  -5  86 MISG      30.27S
$$

MTZ017>020-022>027-061-062-091700-
NORTHEAST MONTANA

CITY           SKY/WX    TMP DP  RH WIND       PRES   REMARKS
GLASGOW        CLOUDY    -5  -9  83 E12       30.51S WCI -23
JORDAN           N/A     -6 -10  83 E5        30.44S
SIDNEY         CLOUDY   -13 -17  82 CALM      30.59R FOG
WOLF POINT     CLOUDY    -4 -10  75 E3        30.59R
PLENTYWOOD       N/A     -6  -9  84 N9        30.53R WCI -22
POPLAR           N/A     -8 -13  77 CALM      30.59R
SCOBEY           N/A     -2 -12  62 CALM      30.45R
$$

MTZ028>42-056>058-091700-
SOUTHCENTRAL AND SOUTHEAST MONTANA

CITY           SKY/WX    TMP DP  RH WIND       PRES   REMARKS
BAKER          CLOUDY    -8 -12  83 E8        30.42R WCI -24
BILLINGS       LGT SNOW   1  -4  79 N6        30.29R VSB 1   WCI -10
LIVINGSTON     CLOUDY     4  -2  76 E5        30.16R
MILES CITY     CLOUDY    -4  -9  79 NE12      30.44R WCI -22
BIG TIMBER     MOCLDY     3   0  85 E5        30.21R HAZE
EKALAKA          N/A     -5 -13  68 SE7       30.25S WCI -19
FORSYTH          N/A     -2  -8  78 NE6       30.41F WCI -14
HARLOWTON      LGT SNOW   0  -4  82 SE3       30.21R
LAUREL           N/A      2  -7  66 NE3       30.23R VSB 1
$$

REGIONAL REPORTS...DAKOTAS

CITY           SKY/WX    TMP DP  RH WIND       PRES   REMARKS
WILLISTON      CLOUDY   -11 -14  86 CALM      30.58R
MINOT          CLOUDY    -9 -14  78 W13       30.55S WCI -29
DICKINSON      CLOUDY   -18 -19  96 W3        30.45R FOG
BEACH          CLOUDY   -13 -18  77 CALM      30.49R
CROSBY         CLOUDY   -13 -18  77 NW7       30.59S WCI -29
TIOGA            N/A    -13 -17  84 NW9       30.52S FOG     WCI -31
WATFORD CITY     N/A    -18 -24  76 SW3       30.55R
BISMARCK       CLOUDY   -13 -18  78 CALM      30.57S
GRAND FORKS    CLOUDY     5  -2  72 NW10      30.58R WCI -10
FARGO          CLOUDY     6  -1  73 NW8       30.59R WCI  -7
BUFFALO SD       N/A     -2  -7  79 E6        30.30R WCI -14
RAPID CITY     FLURRIES   0  -5  79 N12       30.33S WCI -17
$$

REGIONAL REPORTS...WYOMING/IDAHO/WASHINGTON

CITY           SKY/WX    TMP DP  RH WIND       PRES   REMARKS
GILLETTE       CLOUDY    -1  -6  79 CALM      30.21R
SHERIDAN       CLOUDY     5  -1  76 CALM      30.25R
BUFFALO WY     CLOUDY     4  -2  76 N6        30.16R WCI  -7
CODY           CLOUDY     1  -5  75 CALM      30.15R
YELLOWSTONE LA   N/A     18  16  92 CALM      30.04R
IDAHO FALLS    CLOUDY    19  16  88 N7        30.15R FOG     WCI  10
SALMON         CLOUDY    12  10  92 CALM      30.16R
BOISE          CLOUDY    27  23  85 CALM      30.15S
SPOKANE        CLOUDY    17  13  84 NE8       30.12S WCI   7
$$

REGIONAL REPORTS...ALBERTA

CITY           SKY/WX    TMP DP  RH WIND       PRES   REMARKS
EDMONTON       MOCLDY   -17 -24  70 E2        30.46F
CALGARY        CRYSTALS  -8 -13  77 S9        30.26F WCI -25
LETHBRIDGE     FLURRIES  -8 -11  84 E3        30.36S
MEDICINE HAT   MOCLDY    -6  -9  84 NE6       30.47S WCI -18
WATERTON GATE    N/A    -18 -26  69 NE1         N/A
CARDSTON         N/A    -15 -20  76 S1          N/A
MILK RIVER       N/A     -8 -11  84 SE2         N/A
$$

REGIONAL REPORTS...SASKATCHEWAN

CITY           SKY/WX    TMP DP  RH WIND       PRES   REMARKS
SWIFT CURRENT  CLOUDY    -8 -11  84 CALM      30.46R
REGINA         CLEAR    -15 -20  76 NW2       30.57R
SASKATOON      PTCLDY   -13 -18  77 N5        30.62S
CYPRESS HILLS    N/A     -9 -15  77 S5          N/A
ROCKGLEN         N/A     -4  -9  77 W2          N/A
ASSINIBOIA       N/A     -6 -11  77 SE5         N/A
$$




USA.gov is the U.S. government's official web portal to all federal, state and local government web resources and services.